AirNav   Air Wisconsin Up To $57,000 Bonus
 
 1368 users online  

4N1 Greenwood Lake Airport
West Milford, New Jersey, USA

GOING TO WEST MILFORD?


FAA INFORMATION EFFECTIVE 03 NOVEMBER 2022

Location

FAA Identifier: 4N1
Lat/Long: 41-07-42.2000N 074-20-47.5000W
41-07.703333N 074-20.791667W
41.1283889,-74.3465278
(estimated)
Elevation: 789.6 ft. / 240.7 m (surveyed)
Variation: 13W (1995)
From city: 1 mile E of WEST MILFORD, NJ
Time zone: UTC -5 (UTC -4 during Daylight Saving Time)
Zip code: 07480

Airport Operations

Airport use: Open to the public
Activation date: 06/1960
Control tower: no
ARTCC: NEW YORK CENTER
FSS: MILLVILLE FLIGHT SERVICE STATION
NOTAMs facility: MIV (NOTAM-D service available)
Attendance: 0800-1700
Wind indicator: lighted
Segmented circle: no
Lights: ACTVT MIRL RWY 06/24 - CTAF; 5 CLICKS TO ACTVT. PAPI RWY 24 OPR CONS.
Beacon: white-green (lighted land airport)
Operates sunset to sunrise.

Airport Communications

CTAF: 122.9
NEW YORK APPROACH: 127.6
NEW YORK DEPARTURE: 127.6
WX ASOS at FWN (13 nm W): 118.525 (973-875-0859)
WX ASOS at CDW (15 nm S): 135.5 (973-575-4417)
WX ASOS at 12N (19 nm W): PHONE 917-786-7221
WX AWOS-3 at MMU (20 nm S): PHONE 973-290-0135

Nearby radio navigation aids

VOR radial/distance  VOR name  Freq  Var
SAXr078/9.4SPARTA VORTAC115.7011W
HUOr158/20.2HUGUENOT VOR/DME116.1011W
TEBr334/21.2TETERBORO VOR/DME108.4011W
STWr082/24.9STILLWATER VOR/DME109.6011W
BWZr058/29.3BROADWAY VOR/DME114.2011W
LGAr326/29.9LA GUARDIA VOR/DME113.1012W
CMKr267/35.7CARMEL VOR/DME116.6012W
CRIr337/37.1CANARSIE VOR/DME112.3011W
SBJr039/37.3SOLBERG VOR/DME112.9010W
JFKr331/39.6KENNEDY VOR/DME115.9012W
IGNr228/39.9KINGSTON VOR/DME117.6012W

 
NDB name  Hdg/Dist  Freq  Var  ID
CHATHAM022/23.625413WCAT -.-. .- -
STANWYCK222/27.626112WSKU ... -.- ..-

Airport Services

Fuel available: 100LL JET-A
Oil available: AUTOMATED UNICOM; 3 CLICKS TO ACTVT.
Parking: tiedowns
Airframe service: MAJOR
Powerplant service: MAJOR
Bottled oxygen: NONE
Bulk oxygen: NONE

Runway Information

Runway 6/24

Dimensions: 3471 x 60 ft. / 1058 x 18 m
Surface: asphalt, in poor condition
NMRS PARL AND TRANSVERSE SFC CRACKS ALG ENTR LEN OF RWY.
Runway edge lights: medium intensity
RUNWAY 6  RUNWAY 24
Latitude: 41-07.510958N41-07.894688N
Longitude: 074-21.072025W074-20.511670W
Elevation: 789.3 ft.789.4 ft.
Traffic pattern: rightleft
Runway heading: 061 magnetic, 048 true241 magnetic, 228 true
Markings: nonprecision, in fair conditionnonprecision, in fair condition
Visual slope indicator: 2-light PAPI on left (3.50 degrees glide path)
Runway end identifier lights: nono
Touchdown point: yes, no lightsyes, no lights
Obstructions: 192 ft. trees, 1988 ft. from runway, 170 ft. right of centerline, 9:1 slope to clear
TREES BELOW RWY END, CLIFF.
23 ft. tree, 680 ft. from runway, 132 ft. left of centerline, 20:1 slope to clear

Airport Ownership and Management from official FAA records

Ownership: Publicly-owned
Owner: N.J. DEPT. TRANSPORTATION
1035 PARKWAY AVE. P.O. BOX 610, PO BOX 600
TRENTON, NJ 08625
Phone 609-530-2900
Manager: TIM WAGNER
126A AIRPORT RD BOX 1
WEST MILFORD, NJ 07480
Phone 973-728-7721

Airport Operational Statistics

Aircraft based on the field: 31
Single engine airplanes: 29
Multi engine airplanes: 2
    
Aircraft operations: avg 62/day *
82% local general aviation
18% transient general aviation
* for 12-month period ending 02 January 2020

Additional Remarks

RY 06/24 STEEP ROCK LEDGES LCTD JUST BYD BOTH RY ENDS.
ARPT SUBJECT TO GUSTING WIND & FREQUENT CROSSWINDS.
SOME RWY AND TWY LGTS TALLER THAN STANDARD.
DEER AND BIRDS ON AND INVOF ARPT.
FOR CD CTC NEW YORK APCH AT 800-645-3206.

Instrument Procedures

NOTE: All procedures below are presented as PDF files. If you need a reader for these files, you should download the free Adobe Reader.

NOT FOR NAVIGATION. Please procure official charts for flight.
FAA instrument procedures published for use from 03 November 2022 at 0901Z to 01 December 2022 at 0900Z.

 
IAPs - Instrument Approach Procedures
RNAV (GPS) RWY 06   download (204KB)
RNAV (GPS) RWY 24   download (216KB)
NOTE: Special Take-Off Minimums/Departure Procedures apply   download (150KB)

Other nearby airports with instrument procedures:

N07 - Lincoln Park Airport (11 nm S)
KFWN - Sussex Airport (13 nm W)
KCDW - Essex County Airport (15 nm S)
06N - Randall Airport (18 nm N)
12N - Aeroflex/Andover Airport (19 nm W)
KMMU - Morristown Municipal Airport (20 nm S)
 
Loc | Ops | Rwys | IFR | FBO | Links
Com | Nav | Svcs | Stats | Notes
Area around 4N1 (Greenwood Lake Airport)
 
Road maps at: MapQuest Bing Google
 
Aerial photo
WARNING: Photo may not be current or correct
Aerial photo of 4N1 (Greenwood Lake Airport)
Photo by Wendy Silcox McPherson
Photo taken 17-Nov-2012
looking south.

Do you have a better or more recent aerial photo of Greenwood Lake Airport that you would like to share? If so, please send us your photo.

 
Sectional chart

 
Airport distance calculator
Flying to Greenwood Lake Airport? Find the distance to fly.

From to 4N1

Sunrise and sunset
Times for 30-Nov-2022
 Local
(UTC-5)
 Zulu
(UTC)
Morning civil twilight06:3311:33
Sunrise07:0312:03
Sunset16:2921:29
Evening civil twilight16:5921:59

Current date and time
Zulu (UTC)  30-Nov-2022 16:23:04
Local (UTC-5)  30-Nov-2022 11:23:04
 
METAR
KFWN 
14nm W 
301553Z AUTO VRB03KT 5SM RA BR BKN015 BKN021 OVC025 09/07 A2986 RMK AO2 SLP115 P0006 T00890072 $
KCDW 
15nm S 
301601Z 30005KT 1 1/2SM RA BR BKN008 OVC014 07/06 A2990 RMK AO2 CIG 006V012 P0003 T00670056
K12N 
19nm W 
301554Z AUTO 19008G19KT 160V220 10/07 A2986 RMK AO1 SLP117 P0008 T01000072
KTEB 
21nm SE 
301551Z 17008KT 8SM -RA OVC020 11/08 A2989 RMK AO2 RAE12B32 PRESFR SLP120 P0000 T01110083
KMMU 
21nm S 
301546Z 31003KT 2SM -RA BR SCT013 BKN021 OVC028 06/06 A2992
KMGJ 
24nm N 
SuperAWOS
301554Z AUTO 02005KT 4SM -RA BR OVC015 02/02 A2987 RMK AO2 PRESFR SLP118 P0008 T00220017
KSWF 
25nm NE 
301545Z 20010KT 3SM -RA BR OVC011 08/07 A2990 RMK PRESFR
KNYC 
27nm SE 
301551Z AUTO 00000KT 8SM -RA SCT014 OVC034 12/09 A2992 RMK AO2 RAE01B46 PRESFR SLP125 P0000 T01220094 $
TAF
KTEB 
21nm SE 
301430Z 3014/0118 VRB05KT P6SM VCSH BKN035 FM301600 18016G26KT 5SM -SHRA BR SCT007 BKN015 WS020/19045KT TEMPO 3018/3020 BKN007 FM302000 20017G33KT 3SM SHRA BR OVC007 WS020/21045KT FM302300 27017G33KT 6SM -SHRA BKN025 BKN050 FM010100 28014G23KT P6SM SKC
KSWF 
25nm NE 
301430Z 3014/0118 14012G22KT 5SM -SHRA BR SCT006 OVC015 WS020/19040KT TEMPO 3017/3019 BKN006 FM301900 19018G30KT 2SM SHRA BR OVC006 WS020/21040KT FM302200 28018G32KT 6SM -SHRA BKN025 BKN050 FM010000 29017G25KT P6SM SKC AMD NOT SKED
NOTAMs
Click for the latest NOTAMs
NOTAMs are issued by the DoD/FAA and will open in a separate window not controlled by AirNav.

 

 
 

FBO, Fuel Providers, and Aircraft Ground Support

  
 Business Name 
 
 Contact 
 
 Services / Description 
 
Fuel Prices
 
Comments
  
Greenwood Lake Airport Management 973-728-7721
[web site]
[email]
Airport management, Aviation fuel, Aircraft ground handling, Aircraft parking (ramp or tiedown), Hangars, Hangar leasing / sales, Passenger terminal and lounge, ...

More info about Greenwood Lake Airport Management
Phillips 66
100LL Jet A
FS $7.25 $7.89 
SS $6.95 $7.89 
 Updated 14-Nov-2022
  no comments
FS=Full service
SS=Self service
Update Fuel Prices
 

Would you like to see your business listed on this page?

 If your business provides an interesting product or service to pilots, flight crews, aircraft, or users of the Greenwood Lake Airport, you should consider listing it here.  To start the listing process, click on the button below
 
Add a business
 

Other Pages about Greenwood Lake Airport

Update a link
 
Copyright © AirNav, LLC. All rights reserved. Privacy Policy  Contact